Miscellaneous Local Product
Issued by NWS Hastings, NE

Home | Current Version | Previous Version | Text Only | Print | Product List | Glossary Off
Versions: 1 2 3 4 5 6 7 8 9 10 11 12 13 14 15 16 17 18 19 20 21 22 23 24 25 26 27 28 29 30 31 32 33 34 35 36 37 38 39 40 41 42 43 44 45 46 47 48 49 50

000
AXUS43 KGID 201110
MISGRI

GID CWA HOURLY WEATHER ROUNDUP
NATIONAL WEATHER SERVICE HASTINGS NE
600 AM CDT SAT SEP 20 2014

NOTE: "FAIR" INDICATES FEW OR NO CLOUDS BELOW 12,000 FEET WITH NO
SIGNIFICANT WEATHER AND/OR OBSTRUCTIONS TO VISIBILITY.

...SOUTH CENTRAL NEBRASKA...

CITY           SKY/WX    TMP DP  RH WIND       PRES   REMARKS
GRAND ISLAND   PTCLDY    65  60  84 S5        29.90R
HASTINGS       MOCLDY    66  59  78 N5        29.90R
KEARNEY        PTCLDY    64  59  82 CALM      29.92R
ORD            CLEAR     60  57  89 N6        29.91R
YORK           MOCLDY    66  64  94 CALM      29.89F
AURORA         MOCLDY    66  62  86 CALM      29.89S
LEXINGTON      CLEAR     62  59  91 N3        29.92R
HOLDREGE       PTCLDY    65  60  84 CALM      29.91R
HEBRON         PTCLDY    68  61  78 SW7       29.88S

...NEBRASKA PANHANDLE...

CITY           SKY/WX    TMP DP  RH WIND       PRES   REMARKS
CHADRON        CLEAR     50  48  93 CALM      30.06R
ALLIANCE       MOCLDY    54  49  83 N3        30.08R
SCOTTSBLUFF    CLEAR     54  48  80 NW7       30.11R
SIDNEY         CLEAR     60  51  72 N13       30.09R

...WESTERN AND NORTH CENTRAL NEBRASKA...

CITY           SKY/WX    TMP DP  RH WIND       PRES   REMARKS
VALENTINE      PTCLDY    53  51  93 W5        29.99R
AINSWORTH      CLEAR     59  51  76 NW6       29.98R
ONEILL         CLOUDY    63  58  84 NW3       29.95R
BROKEN BOW     CLEAR     62  56  80 N8        29.95R
IMPERIAL       CLEAR     61  55  81 N9        29.97R
NORTH PLATTE   CLEAR     62  55  77 NE15      29.95R
MCCOOK         CLEAR     65  61  87 W7        29.91R

...EASTERN NEBRASKA...

CITY           SKY/WX    TMP DP  RH WIND       PRES   REMARKS
NORFOLK        PTCLDY    65  63  93 NW8       29.88R
SO SIOUX CITY  MOCLDY    62  61  96 CALM      29.85R
TEKAMAH        CLOUDY    70  66  87 VRB7      29.85R
ALBION         PTCLDY    65  59  79 N8        29.90R
OMAHA EPPLEY   CLOUDY    71  68  90 S10       29.87R
OFFUTT AFB     CLOUDY    70  70 100 VRB6      29.85F
MILLARD        CLOUDY    70  67  88 SW3       29.86S THUNDER
LINCOLN        TSTM      70  65  84 S10       29.89F
NEBRASKA CITY    N/A     70  65  84 N5        29.95R
BEATRICE       MOCLDY    69  64  84 SW6       29.89R
FALLS CITY     PTCLDY    70  67  90 SW12      29.89R

...NORTHERN KANSAS...

CITY           SKY/WX    TMP DP  RH WIND       PRES   REMARKS
GOODLAND       CLEAR     60  58  92 W10       30.00R
HILL CITY      CLEAR     67  61  81 SW10      29.91S
NORTON         SUNNY     68  61  77 S8        29.89S
SMITH CENTER   CLEAR     64  59  82 S9        29.90F
BELOIT         CLEAR     66  63  88 CALM      29.89S
HAYS           CLEAR     66  57  72 SW14      29.92S
RUSSELL        CLEAR     68  61  78 S14       29.90F
CONCORDIA      CLEAR     69  64  84 SW15      29.90R
SALINA         CLEAR     68  64  87 S12       29.92S
TOPEKA         CLEAR     70  68  93 SW6       29.93R



USA.gov is the U.S. government's official web portal to all federal, state and local government web resources and services.